Hlavní strana
METAR-TAF:

METAR-TAF

Letiště :

Fernandina Beach, Florida, Spojené státy americké

zeměpisná šířka: 30-36-43N, zeměpisná délka: 081-27-40W, výška: 5 m

Aktuální stav počasí

Zpráva byla vytvořena před 30 minutami, v 01:55 UTC
Jižní vítr 10 kt
Teplota 19°C
Vlhkost vzduchu 83%
Tlak 1023 hPa
Viditelnost: 16.1 km
Jasno

METAR: KFHB 190155Z AUTO 19010KT 10SM CLR 19/16 A3020 RMK AO2 T01910161

Čas: 21:25 (02:25 UTC)


TAF: chybějící

Stav a předpovědi počasí z více než 4 000 letišť (zprávy METAR a TAF).

Červené a žluté tečky na mapě představují dostupné meteorologické stanice.

Když kurzor umístíte na tečku, zobrazí se název stanice.

Pak kliknutím zobrazíte stav a předpověď počasí.

Chcete-li změnit mapu, kliknutím na zelené tlačítko se znaménkem +mapu přiblížíte, kliknutím na zelené tlačítko se znaménkem – mapu oddálíte a kliknutím na zelené šipky přejdete na sousední mapy.


METAR-TAF: